Location: Sternwarte ZA, Rosenfeld-Brittheim
(48.2889°N, 8.6789°E)
Time: 06:15:18
(UTC+02:00)

ISS - Pass Details

Date: 20 September 2020
Orbit: 419 x 420 km, 51.6° (Epoch: 21 September)

Event Time Altitude Azimuth Distance (km) Brightness Sun altitude
Rises 21:38:58 0° 257° (WSW) 2,363 0.8 -22.0°
Reaches altitude 10° 21:41:05 10° 260° (W) 1,501 -0.3 -22.3°
Enters shadow 21:43:51 52° 291° (WNW) 527 -3.0 -22.7°
